Content
SEND FEEDBACK

Daily
Averages
Monthly
Summary
United States of America

CHESTERFIELD, MISSOURI


Home > North America > United States > Missouri
Elevation: 170 meters     Latitude: 38 41N     Longitude: 090 31W

WEATHER
 
SELECT A DAY
Number of Records: 203,542;   Date Range: 1/1/95 - 8/30/14
 
SHARE

PRINT THIS DATA

[ ← Previous Day ]
WEATHER ALMANAC - 21 JANUARY, 2013
[ Next Day → ]
[ °F ]   °C
Weather ElementAverageHighLow
Temperature-6.4 °C-3.3 °C (12:51 pm)-9.4 °C (11:51 pm)
Dewpoint-16.6 °C-11.7 °C (1:51 am)-20.6 °C (1:51 pm)
Humidity46.4 %68 % (4:05 am)28 % (1:51 pm)
Barometer1029.1 hPa1030.8 hPa (10:51 pm)1027.1 hPa (3:42 am)
Wind Speed20.9 km/h33.3 km/h (3:51 am)
Wind Gust50.1 km/h (3:51 am)
Weather ElementAverage
Visibility16.1 km
Wind DirectionWNW (307.6 °)

Weather ElementTotal
Precipitation---
Heating Degree Days24.7 (Base 18.3)
Averaged from 25 records on 21 January, 2013
WEATHER CONDITIONS BREAKOUT
WIND DIRECTION BREAKOUT
WEATHER BY HOUR - 21 JANUARY, 2013
[ °F ]   °C
Local TimeTemperatureDewpointHumidityBarometerVisibilityWind DirectionWind SpeedGust SpeedPrecipitationEventsConditions
1:51 AM-5 °C-11.7 °C60 %1027.8 hPa16.1 kmNW (310°)14.8 km/hMostly Cloudy
2:51 AM-5.6 °C-11.7 °C63 %1027.8 hPa16.1 kmNW (310°)14.8 km/hMostly Cloudy
3:42 AM-6 °C-12 °C63 %1027.1 hPa16.1 kmNNW (330°)27.8 km/h38.9 km/hMostly Cloudy
3:51 AM-6.1 °C-12.2 °C63 %1028.4 hPa16.1 kmNW (320°)33.3 km/h50.1 km/h0 mmSnowLight Snow
4:05 AM-7 °C-12 °C68 %1027.1 hPa16.1 kmNW (320°)18.5 km/h37 km/h0 mmSnowLight Snow
4:51 AM-6.7 °C-12.2 °C65 %1028.4 hPa16.1 kmWNW (300°)11.1 km/h0 mmScattered Clouds
5:51 AM-6.7 °C-12.8 °C62 %1028.4 hPa16.1 kmWNW (290°)16.7 km/hMostly Cloudy
6:51 AM-6.7 °C-15 °C52 %1028.8 hPa16.1 kmWNW (300°)24.1 km/h38.9 km/hMostly Cloudy
7:51 AM-6.7 °C-16.1 °C48 %1028.8 hPa16.1 kmWNW (300°)16.7 km/hMostly Cloudy
8:51 AM-5.6 °C-15.6 °C46 %1029.1 hPa16.1 kmWNW (300°)24.1 km/h38.9 km/hScattered Clouds
9:51 AM-5 °C-16.1 °C42 %1029.1 hPa16.1 kmWNW (290°)27.8 km/h50.1 km/hScattered Clouds
10:51 AM-3.9 °C-17.2 °C36 %1029.1 hPa16.1 kmWNW (300°)27.8 km/h44.4 km/hScattered Clouds
11:51 AM-3.9 °C-18.9 °C31 %1028.4 hPa16.1 kmNW (310°)33.3 km/h46.3 km/hScattered Clouds
12:51 PM-3.3 °C-18.9 °C30 %1028.1 hPa16.1 kmWNW (300°)25.9 km/h44.4 km/hScattered Clouds
1:51 PM-4.4 °C-20.6 °C28 %1028.8 hPa16.1 kmWNW (290°)27.8 km/h40.7 km/hMostly Cloudy
2:51 PM-5.6 °C-18.9 °C35 %1029.1 hPa16.1 kmNW (320°)22.2 km/h35.2 km/hMostly Cloudy
3:51 PM-6.7 °C-20 °C35 %1029.8 hPa16.1 kmNW (320°)20.4 km/h35.2 km/hMostly Cloudy
4:51 PM-7.2 °C-18.9 °C40 %1029.8 hPa16.1 kmWest (280°)25.9 km/hMostly Cloudy
5:51 PM-7.2 °C-19.4 °C38 %1030.1 hPa16.1 kmWNW (300°)14.8 km/hOvercast
6:51 PM-7.8 °C-19.4 °C40 %1030.5 hPa16.1 kmNW (320°)20.4 km/hOvercast
7:51 PM-8 °C-19 °C42 %1028.4 hPa16.1 kmNW (320°)14.8 km/hMostly Cloudy
8:51 PM-8.3 °C-19.4 °C41 %1030.5 hPa16.1 kmNNW (330°)16.7 km/hMostly Cloudy
9:51 PM-8.9 °C-19.4 °C43 %1030.5 hPa16.1 kmNW (320°)16.7 km/hMostly Cloudy
10:51 PM-8.3 °C-19.4 °C41 %1030.8 hPa16.1 kmNW (310°)16.7 km/hMostly Cloudy
11:51 PM-9.4 °C-18.9 °C47 %1030.8 hPa16.1 kmWNW (300°)11.1 km/hPartly Cloudy
Hourly data recorded from KSTL, located 0 kilometers away from Chesterfield, Missouri







STORIES FROM OUR PARTNERS